Waco, TX

7:51 AM CST on December 03, 2016 (GMT -0600)
Waco Regional

Weather History for KACT - January, 2014

Change the Weather History Date:

Friday, January 31, 2014

  Actual Average Record
Temperature  
Mean Temperature 64 °F 48 °F  
Max Temperature 76 °F 60 °F 89 °F (1911)
Min Temperature 52 °F 37 °F -5 °F (1949)
Degree Days  
Heating Degree Days 1 17  
Month to date heating degree days 604 556  
Since 1 July heating degree days 1670 1408  
Cooling Degree Days 0 0  
Month to date cooling degree days 0 3  
Year to date cooling degree days 0 3  
Growing Degree Days 12 (Base 50)    
Moisture  
Dew Point 53 °F    
Average Humidity 67    
Maximum Humidity 90    
Minimum Humidity 43    
Precipitation  
Precipitation 0.00 in 0.08 in 0.80 in (1916)
Month to date precipitation 0.30 2.12  
Year to date precipitation 0.30 2.12  
Snow  
Snow 0.00 in 0.00 in 0.80 in (1951)
Month to date snowfall T 0.3  
Since 1 July snowfall T 0.4  
Snow Depth 0.00 in    
Sea Level Pressure  
Sea Level Pressure 29.83 in    
Wind  
Wind Speed 17 mph (South)    
Max Wind Speed 25 mph    
Max Gust Speed 31 mph    
Visibility 10 miles    
Events      
T = Trace of Precipitation, MM = Missing Value Source: NWS Daily Summary

Daily Weather History Graph

Daily Weather History Graph

Search for Another Location

Airport or City:

Trip Planner

Search our weather history database for the weather conditions in past years. The results will help you decide how hot, cold, wet, or windy it might be!

Date:

Astronomy

Jan. 31, 2014 Rise Set
Actual Time 7:22 AM CST 6:02 PM CST
Civil Twilight 6:56 AM CST 6:28 PM CST
Nautical Twilight 6:27 AM CST 6:57 PM CST
Astronomical Twilight 5:58 AM CST 7:26 PM CST
Moon 7:39 AM CST (1/31) 7:20 PM CST (1/31)
Length of Visible Light 11h 31m
Length of Day
10h 40m
New Moon, 1% of the Moon is Illuminated
Jan 31
New Moon
Feb 6
First Quarter
Feb 14
Full
Feb 22
Last Quarter
Mar 1
New

Hourly Weather History & Observations

Time (CST) Temp. Dew Point Humidity Pressure Visibility Wind Dir Wind Speed Gust Speed Precip Events Conditions
12:14 AM 53.6 °F 50.0 °F 88% 29.87 in 10.0 mi South 16.1 mph - N/A   Overcast
12:51 AM 53.1 °F 50.0 °F 89% 29.86 in 10.0 mi South 15.0 mph - N/A   Overcast
1:51 AM 55.0 °F 51.1 °F 86% 29.85 in 10.0 mi South 18.4 mph 27.6 mph N/A   Overcast
2:51 AM 55.0 °F 51.1 °F 86% 29.84 in 10.0 mi South 18.4 mph 27.6 mph N/A   Overcast
3:51 AM 55.0 °F 51.1 °F 86% 29.83 in 10.0 mi South 17.3 mph 25.3 mph N/A   Overcast
4:51 AM 55.0 °F 51.1 °F 86% 29.83 in 10.0 mi South 18.4 mph - N/A   Overcast
5:51 AM 55.0 °F 51.1 °F 86% 29.83 in 10.0 mi South 20.7 mph 25.3 mph N/A   Overcast
6:51 AM 55.0 °F 51.1 °F 86% 29.86 in 10.0 mi South 18.4 mph 31.1 mph N/A   Overcast
7:51 AM 55.0 °F 51.1 °F 86% 29.88 in 10.0 mi South 15.0 mph 24.2 mph N/A   Overcast
8:51 AM 57.0 °F 51.1 °F 81% 29.89 in 10.0 mi South 17.3 mph - N/A   Overcast
9:51 AM 60.1 °F 52.0 °F 75% 29.91 in 10.0 mi South 20.7 mph 29.9 mph N/A   Overcast
10:36 AM 62.6 °F 51.8 °F 68% 29.92 in 10.0 mi South 18.4 mph 26.5 mph N/A   Scattered Clouds
10:51 AM 64.0 °F 52.0 °F 65% 29.91 in 10.0 mi South 18.4 mph 26.5 mph N/A   Scattered Clouds
11:51 AM 66.0 °F 52.0 °F 60% 29.89 in 10.0 mi South 19.6 mph - N/A   Clear
12:51 PM 70.0 °F 52.0 °F 53% 29.85 in 10.0 mi South 18.4 mph - N/A   Clear
1:51 PM 73.0 °F 51.1 °F 46% 29.81 in 10.0 mi South 18.4 mph - N/A   Clear
2:51 PM 75.0 °F 52.0 °F 44% 29.78 in 10.0 mi South 19.6 mph - N/A   Clear
3:51 PM 73.0 °F 52.0 °F 48% 29.77 in 10.0 mi South 19.6 mph - N/A   Clear
4:51 PM 73.0 °F 52.0 °F 48% 29.77 in 10.0 mi South 21.9 mph 26.5 mph N/A   Clear
5:51 PM 68.0 °F 53.1 °F 59% 29.78 in 10.0 mi South 13.8 mph - N/A   Clear
6:51 PM 66.0 °F 54.0 °F 65% 29.79 in 10.0 mi SSE 10.4 mph - N/A   Clear
7:51 PM 64.9 °F 55.0 °F 70% 29.78 in 10.0 mi SSE 15.0 mph - N/A   Clear
8:51 PM 64.0 °F 55.9 °F 75% 29.80 in 10.0 mi SSE 13.8 mph - N/A   Clear
9:51 PM 63.0 °F 57.9 °F 84% 29.80 in 10.0 mi SSE 16.1 mph - N/A   Clear
10:29 PM 62.6 °F 57.2 °F 82% 29.81 in 10.0 mi South 19.6 mph 26.5 mph N/A   Mostly Cloudy
10:51 PM 63.0 °F 59.0 °F 87% 29.79 in 10.0 mi South 19.6 mph 26.5 mph N/A   Overcast
11:51 PM 63.0 °F 59.0 °F 87% 29.80 in 10.0 mi South 13.8 mph - N/A   Overcast